Year,Month,Day,Hour,Minute,Value (Times are PST for temperature in C)
2012,12,02,10,32,5.40
2012,12,02,10,33,5.40
2012,12,02,10,34,5.40
2012,12,02,10,35,5.40
2012,12,02,10,36,5.40
2012,12,02,10,37,5.40
2012,12,02,10,38,5.50
2012,12,02,10,39,5.50
2012,12,02,10,40,5.50
2012,12,02,10,41,5.60
2012,12,02,10,42,5.60
2012,12,02,10,43,5.70
2012,12,02,10,44,5.70
2012,12,02,10,45,5.80
2012,12,02,10,46,5.90
2012,12,02,10,47,5.90
2012,12,02,10,48,5.90
2012,12,02,10,49,5.90
2012,12,02,10,50,5.90
2012,12,02,10,51,5.90
2012,12,02,10,52,5.90
2012,12,02,10,53,5.90
2012,12,02,10,54,5.90
2012,12,02,10,55,5.90
2012,12,02,10,56,5.90
2012,12,02,10,57,5.90
2012,12,02,10,58,5.90
2012,12,02,10,59,5.90
2012,12,02,11,00,5.90
2012,12,02,11,01,5.90
2012,12,02,11,02,5.90
2012,12,02,11,03,5.90
2012,12,02,11,04,5.90
2012,12,02,11,05,5.90
2012,12,02,11,06,5.90
2012,12,02,11,07,5.90
2012,12,02,11,08,5.90
2012,12,02,11,09,5.90
2012,12,02,11,10,5.90
2012,12,02,11,11,6.00
2012,12,02,11,12,6.10
2012,12,02,11,13,6.10
2012,12,02,11,14,6.20
2012,12,02,11,15,6.20
2012,12,02,11,16,6.20
2012,12,02,11,17,6.30
2012,12,02,11,18,6.30
2012,12,02,11,19,6.30
2012,12,02,11,20,6.30
2012,12,02,11,21,6.40
2012,12,02,11,22,6.40
2012,12,02,11,23,6.30
2012,12,02,11,24,6.30
2012,12,02,11,25,6.30
2012,12,02,11,26,6.40
2012,12,02,11,27,6.40
2012,12,02,11,28,6.40
2012,12,02,11,29,6.40
2012,12,02,11,30,6.50
2012,12,02,11,31,6.50
2012,12,02,11,32,6.60
2012,12,02,11,33,6.60
2012,12,02,11,34,6.60
2012,12,02,11,35,6.60
2012,12,02,11,36,6.70
2012,12,02,11,37,6.70
2012,12,02,11,38,6.80
2012,12,02,11,39,6.80
2012,12,02,11,40,6.80
2012,12,02,11,41,6.80
2012,12,02,11,42,6.80
2012,12,02,11,43,6.80
2012,12,02,11,44,6.70
2012,12,02,11,45,6.70
2012,12,02,11,46,6.70
2012,12,02,11,47,6.60
2012,12,02,11,48,6.60
2012,12,02,11,49,6.60
2012,12,02,11,50,6.60
2012,12,02,11,51,6.70
2012,12,02,11,52,6.70
2012,12,02,11,53,6.70
2012,12,02,11,54,6.70
2012,12,02,11,55,6.70
2012,12,02,11,56,6.80
2012,12,02,11,57,6.80
2012,12,02,11,58,6.90
2012,12,02,11,59,6.90
2012,12,02,12,00,7.00
2012,12,02,12,01,7.00
2012,12,02,12,02,7.10
2012,12,02,12,03,7.20
2012,12,02,12,04,7.20
2012,12,02,12,05,7.20
2012,12,02,12,06,7.30
2012,12,02,12,07,7.30
2012,12,02,12,08,7.40
2012,12,02,12,09,7.40
2012,12,02,12,10,7.40
2012,12,02,12,11,7.40
2012,12,02,12,12,7.40
2012,12,02,12,13,7.40
2012,12,02,12,14,7.40
2012,12,02,12,15,7.50
2012,12,02,12,16,7.50
2012,12,02,12,17,7.50
2012,12,02,12,18,7.60
2012,12,02,12,19,7.60
2012,12,02,12,20,7.70
2012,12,02,12,21,7.70
2012,12,02,12,22,7.80
2012,12,02,12,23,7.80
2012,12,02,12,24,7.80
2012,12,02,12,25,7.90
2012,12,02,12,26,8.00
2012,12,02,12,27,8.00
2012,12,02,12,28,8.10
2012,12,02,12,29,8.10
2012,12,02,12,30,8.20
2012,12,02,12,31,8.30
2012,12,02,12,32,8.30
2012,12,02,12,33,8.40
2012,12,02,12,34,8.40
2012,12,02,12,35,8.50
2012,12,02,12,36,8.50
2012,12,02,12,37,8.60
2012,12,02,12,38,8.60
2012,12,02,12,39,8.70
2012,12,02,12,40,8.70
2012,12,02,12,41,8.80
2012,12,02,12,42,8.80
2012,12,02,12,43,8.80
2012,12,02,12,44,8.80
2012,12,02,12,45,8.80
2012,12,02,12,46,8.80
2012,12,02,12,47,8.90
2012,12,02,12,48,8.90
2012,12,02,12,49,8.90
2012,12,02,12,50,8.90
2012,12,02,12,51,8.80
2012,12,02,12,52,8.80
2012,12,02,12,53,8.70
2012,12,02,12,54,8.60
2012,12,02,12,55,8.50
2012,12,02,12,56,8.50
2012,12,02,12,57,8.40
2012,12,02,12,58,8.40
2012,12,02,12,59,8.40
2012,12,02,13,00,8.40
2012,12,02,13,01,8.30
2012,12,02,13,02,8.30
2012,12,02,13,03,8.20
2012,12,02,13,04,8.20
2012,12,02,13,05,8.20
2012,12,02,13,06,8.20
2012,12,02,13,07,8.20
2012,12,02,13,08,8.30
2012,12,02,13,09,8.30
2012,12,02,13,10,8.30
2012,12,02,13,11,8.40
2012,12,02,13,12,8.40
2012,12,02,13,13,8.50
2012,12,02,13,14,8.60
2012,12,02,13,15,8.60
2012,12,02,13,16,8.60
2012,12,02,13,17,8.70
2012,12,02,13,18,8.60
2012,12,02,13,19,8.70
2012,12,02,13,20,8.70
2012,12,02,13,21,8.70
2012,12,02,13,22,8.70
2012,12,02,13,23,8.70
2012,12,02,13,24,8.70
2012,12,02,13,25,8.70
2012,12,02,13,26,8.70
2012,12,02,13,27,8.70
2012,12,02,13,28,8.80
2012,12,02,13,29,8.80
2012,12,02,13,30,8.80
2012,12,02,13,31,8.90
2012,12,02,13,32,8.90
2012,12,02,13,33,8.90
2012,12,02,13,34,8.90
2012,12,02,13,35,8.90
2012,12,02,13,36,8.80
2012,12,02,13,37,8.70
2012,12,02,13,38,8.70
2012,12,02,13,39,8.70
2012,12,02,13,40,8.60
2012,12,02,13,41,8.60
2012,12,02,13,42,8.60
2012,12,02,13,43,8.60
2012,12,02,13,44,8.60
2012,12,02,13,45,8.60
2012,12,02,13,46,8.50
2012,12,02,13,47,8.50
2012,12,02,13,48,8.50
2012,12,02,13,49,8.40
2012,12,02,13,50,8.40
2012,12,02,13,51,8.40
2012,12,02,13,52,8.40
2012,12,02,13,53,8.30
2012,12,02,13,54,8.30
2012,12,02,13,55,8.30
2012,12,02,13,56,8.30
2012,12,02,13,57,8.30
2012,12,02,13,58,8.20
2012,12,02,13,59,8.20
2012,12,02,14,00,8.20
2012,12,02,14,01,8.20
2012,12,02,14,02,8.20
2012,12,02,14,03,8.20
2012,12,02,14,04,8.20
2012,12,02,14,05,8.20
2012,12,02,14,06,8.20
2012,12,02,14,07,8.20
2012,12,02,14,08,8.20
2012,12,02,14,09,8.20
2012,12,02,14,10,8.20
2012,12,02,14,11,8.20
2012,12,02,14,27,7.80
2012,12,02,14,28,7.80
2012,12,02,14,29,7.80
2012,12,02,14,30,7.80
2012,12,02,14,31,7.80
2012,12,02,14,32,7.90
2012,12,02,14,33,7.90
2012,12,02,14,34,7.90
2012,12,02,14,35,7.90
2012,12,02,14,36,8.00
2012,12,02,14,37,8.00
2012,12,02,14,38,8.00
2012,12,02,14,39,8.10
2012,12,02,14,40,8.10
2012,12,02,14,41,8.10
2012,12,02,14,42,8.10
2012,12,02,14,43,8.10
2012,12,02,14,44,8.10
2012,12,02,14,45,8.10
2012,12,02,14,46,8.10
2012,12,02,14,47,8.10
2012,12,02,14,48,8.10
2012,12,02,14,49,8.10
2012,12,02,14,50,8.10
2012,12,02,14,51,8.10
2012,12,02,14,52,8.10
2012,12,02,14,53,8.10
2012,12,02,14,54,8.10
2012,12,02,14,55,8.10
2012,12,02,14,56,8.10
2012,12,02,14,57,8.10
2012,12,02,14,58,8.10
2012,12,02,14,59,8.10
2012,12,02,15,00,8.10
2012,12,02,15,01,8.10
2012,12,02,15,02,8.10
2012,12,02,15,03,8.10
2012,12,02,15,04,8.10
2012,12,02,15,05,8.20
2012,12,02,15,06,8.20
2012,12,02,15,07,8.20
2012,12,02,15,08,8.20
2012,12,02,15,09,8.10
2012,12,02,15,10,8.10
2012,12,02,15,11,8.10
2012,12,02,15,12,8.10
2012,12,02,15,13,8.10
2012,12,02,15,14,8.10
2012,12,02,15,15,8.10
2012,12,02,15,16,8.10
2012,12,02,15,17,8.10
2012,12,02,15,18,8.10
2012,12,02,15,19,8.10
2012,12,02,15,20,8.10
2012,12,02,15,21,8.10
2012,12,02,15,22,8.10
2012,12,02,15,23,8.10
2012,12,02,15,24,8.10
2012,12,02,15,25,8.10
2012,12,02,15,26,8.10
2012,12,02,15,27,8.20
2012,12,02,15,28,8.20
2012,12,02,15,29,8.20
2012,12,02,15,30,8.20
2012,12,02,15,31,8.20
2012,12,02,15,32,8.20
2012,12,02,15,33,8.20
2012,12,02,15,34,8.20
2012,12,02,15,35,8.20
2012,12,02,15,36,8.20
2012,12,02,15,37,8.20
2012,12,02,15,38,8.20
2012,12,02,15,39,8.20
2012,12,02,15,40,8.20
2012,12,02,15,41,8.20
2012,12,02,15,42,8.20
2012,12,02,15,43,8.20
